Location: Capvern
(43.1036°N, 0.3160°E)
Time: 03:29:41
(UTC+00:00)

Cosmos 2369 - Pass Details

Date: 16 October 2021
Orbit: 838 x 857 km, 71.0° (Epoch: 02 December)

Event Time Altitude Azimuth Distance (km) Brightness Sun altitude
Rises 18:42:44 0° 215° (SW) 3,379 7.3 -16.9°
Reaches altitude 10° 18:45:12 10° 219° (SW) 2,450 6.6 -17.4°
Maximum altitude 18:50:44 59° 298° (WNW) 974 4.3 -18.4°
Drops below altitude 10° 18:56:21 10° 18° (NNE) 2,476 6.0 -19.4°
Sets 18:58:52 0° 22° (NNE) 3,418 6.7 -19.9°
